[[{"header":{"parameterUnit":"m.s-1","parameterCategory":1,"la1":30.2991,"la2":30.254,"lo1":-89.0895,"lo2":-89.0444,"dy":0.0017,"dx":0.0017,"nx":28,"ny":28,"refTime":"2024-07-19T03:00:00:Z","depth":0,"parameterNumber":2,"parameterNumberName":"U-component_of_WINDS"},"data":[0,0,0,0,0,0,0,0,0,0,0,0,0,0,0,0,0,0,0,0,0,0,0,0,0,0,0,0,0,0,0,0,0,0,0,0,0,0,0,0,0,0,0,0,0,0,0,0,0,0,0,0,0,0,0,0,0,0,1.3179,1.3179,0,1.3128,1.3128,1.3127,1.3049,1.3047,1.3046,1.3045,1.2993,1.2993,1.2993,0,0,0,0,0,0,0,0,0,0,0,0,0,1.3209,1.3209,1.3179,1.3179,1.3178,1.3128,1.3128,1.3127,1.3049,1.3047,1.3046,1.3044,1.2993,1.2993,1.2993,0,0,0,0,0,0,0,0,0,0,0,0,0,1.3181,1.3209,1.3179,1.3133,1.3128,1.3128,1.3128,1.3127,1.3049,1.3047,1.3045,1.3043,1.2993,1.2993,1.2993,1.3035,0,0,1.2993,1.2993,0,0,0,0,0,0,0,0,1.3183,1.318,1.3141,1.3136,1.3131,1.3093,1.3119,1.3096,1.305,1.3079,1.3045,1.3042,1.3028,1.3025,1.302,1.3032,1.303,1.2993,1.2993,1.2993,1.2993,0,0,0,0,0,0,0,1.3185,1.3182,1.3159,1.314,1.3134,1.3115,1.3109,1.3114,1.3066,1.3077,1.3071,1.3066,1.3025,1.302,1.3018,1.3029,1.2993,1.2993,1.2993,1.2993,1.3071,1.3073,0,0,0,0,0,0,1.3194,1.3184,1.3161,1.3157,1.3152,1.3116,1.3109,1.3107,1.3066,1.3058,1.3068,1.3062,1.3022,1.3019,1.3016,1.306,1.2993,1.2993,1.2993,1.3069,1.3071,1.3073,0,0,0,0,0,0,1.3194,1.3192,1.3163,1.3169,1.3164,1.3118,1.3116,1.3107,1.3102,1.3059,1.305,1.3072,1.302,1.3016,1.303,1.3058,1.2993,1.2993,1.3066,1.3069,1.3072,1.315,0,0,0,0,0,0,1.3196,1.3193,1.3208,1.317,1.3164,1.3178,1.3118,1.3108,1.3102,1.3095,1.306,1.3053,1.3018,1.3031,1.303,1.3056,1.2993,1.3063,1.3068,1.3071,1.3145,1.3156,1.3165,0,0,0,0,0,1.3197,1.3233,1.321,1.3207,1.3182,1.3179,1.3176,1.3135,1.3105,1.312,1.3092,1.3054,1.3055,1.3033,1.3031,1.3058,1.3061,1.3066,1.3071,1.3141,1.3154,1.3165,0,0,0,0,0,0,1.3276,1.3227,1.3201,1.3225,1.3207,1.3166,1.3184,1.315,1.314,1.3134,1.3084,1.3077,1.3096,1.3079,1.3055,1.3095,1.3052,1.3057,1.3106,1.3118,1.3128,1.3131,1.2993,0,0,0,0,0,1.3297,1.3299,1.3256,1.3282,1.3274,1.3231,1.3228,1.3198,1.3177,1.3169,1.3142,1.3124,1.3119,1.3118,1.3112,1.3142,1.3133,1.316,1.317,1.3178,1.3183,1.3196,1.3207,1.3089,1.3089,1.3089,0,0,1.3339,1.3312,1.3317,1.3297,1.3279,1.3282,1.3225,1.323,1.3232,1.317,1.3181,1.316,1.3136,1.3158,1.3166,1.3144,1.3213,1.3184,1.3191,1.3191,1.3202,1.3213,1.3223,1.3092,1.3092,1.3091,0,0,1.3417,1.3397,1.3416,1.3399,1.3373,1.3344,1.3348,1.3312,1.3296,1.3306,1.3259,1.326,1.3255,1.3239,1.323,1.3301,1.3265,1.33,1.3352,1.3365,1.3374,1.3382,1.3406,1.3415,1.3305,1.3305,1.3305,0,1.3472,1.3475,1.343,1.3438,1.343,1.3374,1.3392,1.3378,1.3351,1.3347,1.3322,1.3313,1.3293,1.3309,1.3326,1.3322,1.3324,1.3303,1.3377,1.3384,1.3391,1.3413,1.3422,1.3309,1.3309,1.3308,1.3308,0,1.3544,1.3546,1.3564,1.3539,1.3533,1.3546,1.3503,1.3503,1.3473,1.3447,1.3457,1.343,1.3417,1.3419,1.3391,1.3431,1.3418,1.3386,1.3342,1.3407,1.3427,1.3435,1.3316,1.3314,1.3313,1.3312,0,0,1.367,1.3619,1.3626,1.3613,1.358,1.3581,1.3591,1.3578,1.3578,1.3561,1.3568,1.3564,1.3533,1.3523,1.3492,1.3504,1.356,1.347,1.3469,1.3487,1.3602,1.3625,1.3636,1.3537,1.3538,1.3539,1.3603,0,1.374,1.3754,1.3714,1.3738,1.3739,1.3685,1.3694,1.3674,1.3649,1.3646,1.3619,1.3616,1.3577,1.357,1.358,1.3551,1.3582,1.3546,1.3541,1.3542,1.3548,1.3646,1.3672,1.3733,1.3611,1.3612,1.3613,0,1.3823,1.381,1.3835,1.3798,1.3797,1.3806,1.3789,1.3787,1.3763,1.3745,1.3733,1.3697,1.3704,1.3662,1.367,1.3647,1.3642,1.3628,1.3629,1.3626,1.3581,1.3645,1.3752,1.3761,1.3625,1.3624,1.3623,0,1.3911,1.39,1.3912,1.3903,1.3862,1.3869,1.3852,1.3826,1.382,1.3806,1.3801,1.3788,1.3781,1.3772,1.3733,1.3706,1.3745,1.3701,1.3729,1.373,1.3739,1.3738,1.3845,1.3738,1.3738,1.3738,1.3738,0,1.3993,1.4009,1.3951,1.3959,1.3975,1.3929,1.3946,1.3924,1.3901,1.3903,1.3856,1.3859,1.3808,1.3805,1.3774,1.3785,1.3783,1.3767,1.3758,1.377,1.3772,1.3766,1.376,1.374,1.374,1.3739,1.3739,0,1.4093,1.4055,1.4065,1.4024,1.4014,1.4028,1.3993,1.3999,1.3971,1.3974,1.3972,1.3928,1.3922,1.3882,1.3868,1.3847,1.3868,1.3852,1.3876,1.387,1.39,1.3897,1.4006,1.4017,1.3904,1.3906,1.3907,0,1.4147,1.4158,1.4119,1.4117,1.4102,1.4099,1.4092,1.4047,1.4042,1.4015,1.4023,1.4013,1.4003,1.3995,1.3962,1.395,1.3932,1.3971,1.393,1.3941,1.3931,1.393,1.3931,1.398,1.3981,1.3982,1.3983,0,1.4246,1.4226,1.4219,1.4204,1.4198,1.4184,1.4168,1.4169,1.4118,1.4115,1.4108,1.41,1.4084,1.4074,1.4056,1.4038,1.4002,1.3997,1.4002,1.4014,1.4027,1.4019,1.3899,1.3994,1.3993,1.3992,1.3992,1.3991,1.4324,1.4331,1.4304,1.4296,1.4279,1.4265,1.4267,1.4239,1.4233,1.4216,1.419,1.4186,1.416,1.4133,1.4117,1.4114,1.4093,1.4101,1.4103,1.4106,1.4111,1.4029,1.411,1.411,1.411,1.4109,1.4109,0,1.4419,1.4399,1.4393,1.4371,1.4365,1.4332,1.4312,1.4309,1.4306,1.4285,1.4276,1.4267,1.4257,1.4223,1.4209,1.4213,1.4196,1.421,1.4209,1.4205,1.4132,1.4127,1.4224,1.4224,1.4224,1.4224,1.4224,1.4224,1.4468,1.4478,1.4455,1.4455,1.4435,1.443,1.4422,1.4408,1.4391,1.4383,1.4374,1.4352,1.4326,1.431,1.4299,1.4289,1.4285,1.4305,1.429,1.4222,1.4211,1.42,1.4196,1.4305,1.4306,1.4364,1.4364,1.4365]},{"header":{"parameterUnit":"m.s-1","parameterCategory":1,"la1":30.2991,"la2":30.254,"lo1":-89.0895,"lo2":-89.0444,"dy":0.0017,"dx":0.0017,"nx":28,"ny":28,"refTime":"2024-07-19T03:00:00:Z","depth":0,"parameterNumber":3,"parameterNumberName":"V-component_of_WINDS"},"data":[0,0,0,0,0,0,0,0,0,0,0,0,0,0,0,0,0,0,0,0,0,0,0,0,0,0,0,0,0,0,0,0,0,0,0,0,0,0,0,0,0,0,0,0,0,0,0,0,0,0,0,0,0,0,0,0,0,0,4.7545,4.7544,0,4.75,4.75,4.7499,4.7419,4.7417,4.7416,4.7414,4.737,4.737,4.7371,0,0,0,0,0,0,0,0,0,0,0,0,0,4.7562,4.7562,4.7545,4.7544,4.7544,4.75,4.75,4.7499,4.7419,4.7417,4.7415,4.7414,4.737,4.737,4.7371,0,0,0,0,0,0,0,0,0,0,0,0,0,4.754,4.7562,4.7545,4.7498,4.7494,4.75,4.75,4.7499,4.7419,4.7417,4.7415,4.7413,4.737,4.737,4.7371,4.7419,0,0,4.7372,4.7372,0,0,0,0,0,0,0,0,4.7541,4.7539,4.7506,4.7502,4.7496,4.7463,4.7489,4.7472,4.742,4.7448,4.7414,4.7411,4.7403,4.74,4.7397,4.7417,4.7415,4.7372,4.7372,4.7372,4.7372,0,0,0,0,0,0,0,4.7543,4.7541,4.7527,4.7505,4.75,4.748,4.7475,4.7486,4.7439,4.7445,4.7439,4.7435,4.74,4.7397,4.7396,4.7415,4.7372,4.7372,4.7373,4.7373,4.7472,4.7474,0,0,0,0,0,0,4.7551,4.7542,4.7528,4.7526,4.7513,4.7482,4.7475,4.7476,4.7438,4.7431,4.7437,4.7431,4.7397,4.7395,4.7394,4.7447,4.7372,4.7373,4.7373,4.7469,4.7472,4.7475,0,0,0,0,0,0,4.7551,4.755,4.753,4.7532,4.7528,4.7484,4.7485,4.7476,4.7473,4.7432,4.7424,4.7442,4.7396,4.7393,4.7413,4.7444,4.7373,4.7373,4.7466,4.747,4.7473,4.7555,0,0,0,0,0,0,4.7552,4.7551,4.7569,4.7533,4.7529,4.755,4.7487,4.7477,4.7474,4.7466,4.7435,4.7428,4.7394,4.7413,4.7414,4.7443,4.7374,4.7463,4.7468,4.7472,4.7549,4.7561,4.7571,0,0,0,0,0,4.7553,4.7594,4.757,4.7569,4.755,4.7552,4.755,4.7509,4.7477,4.7494,4.7468,4.7429,4.7441,4.7416,4.7416,4.7446,4.7461,4.7467,4.7472,4.7544,4.7558,4.757,0,0,0,0,0,0,4.7634,4.7588,4.7561,4.7592,4.7577,4.7539,4.7559,4.7525,4.7519,4.7512,4.7463,4.7456,4.7483,4.7467,4.7439,4.7491,4.7445,4.7451,4.75,4.7513,4.7524,4.7526,4.7374,0,0,0,0,0,4.7656,4.7661,4.7621,4.7652,4.7646,4.7604,4.7604,4.7574,4.7556,4.7549,4.7525,4.7509,4.751,4.7511,4.7509,4.7547,4.7539,4.7568,4.7579,4.7588,4.7593,4.761,4.7623,4.7492,4.7492,4.7492,0,0,4.77,4.7676,4.7682,4.7667,4.7652,4.7659,4.7599,4.7609,4.7614,4.7551,4.7568,4.755,4.7529,4.7558,4.757,4.7546,4.7627,4.7595,4.7602,4.7602,4.7617,4.763,4.7641,4.7496,4.7495,4.7495,0,0,4.7783,4.7766,4.7789,4.7775,4.7752,4.7725,4.7731,4.7698,4.7683,4.7699,4.7652,4.7657,4.7659,4.7646,4.764,4.772,4.7683,4.7721,4.7776,4.7794,4.7804,4.7813,4.784,4.7851,4.7726,4.7726,4.7727,0,4.7841,4.7849,4.7806,4.7818,4.7813,4.7757,4.7779,4.7768,4.7747,4.7744,4.7718,4.7718,4.7701,4.7725,4.7745,4.7742,4.7747,4.7723,4.7806,4.7815,4.7822,4.7847,4.7858,4.7731,4.773,4.773,4.773,0,4.7921,4.7927,4.7949,4.7928,4.7926,4.7944,4.7903,4.7906,4.7877,4.7852,4.7869,4.7846,4.7838,4.7843,4.7814,4.7863,4.7849,4.7816,4.7768,4.784,4.7863,4.7872,4.7737,4.7736,4.7734,4.7733,0,0,4.8052,4.8008,4.8017,4.8006,4.7978,4.7982,4.7998,4.7989,4.7992,4.798,4.7991,4.7994,4.7963,4.7956,4.7926,4.7942,4.8005,4.7906,4.7905,4.7924,4.8056,4.808,4.8092,4.7982,4.7983,4.7985,4.8057,0,4.8128,4.8152,4.8113,4.8145,4.815,4.8097,4.8111,4.8095,4.8073,4.8074,4.805,4.8052,4.8011,4.8007,4.802,4.7995,4.8031,4.7989,4.7991,4.7991,4.7995,4.8104,4.8129,4.8198,4.8066,4.8067,4.8068,0,4.822,4.8211,4.8243,4.8212,4.8213,4.8226,4.8215,4.8217,4.8198,4.8181,4.8174,4.8138,4.8151,4.8107,4.8124,4.8097,4.8096,4.8083,4.8085,4.8082,4.8033,4.8102,4.8219,4.8229,4.8082,4.8081,4.808,0,4.831,4.8307,4.8325,4.8319,4.8284,4.8294,4.828,4.8258,4.8256,4.8247,4.8244,4.8238,4.8234,4.8229,4.8193,4.8164,4.8214,4.8167,4.8199,4.82,4.821,4.8209,4.8327,4.8213,4.8213,4.8213,4.8212,0,4.8398,4.8419,4.8366,4.8377,4.84,4.8356,4.838,4.836,4.8342,4.8349,4.8304,4.8311,4.8263,4.8266,4.8238,4.8255,4.8254,4.824,4.8232,4.8243,4.8245,4.824,4.8233,4.8215,4.8215,4.8214,4.8214,0,4.8502,4.8467,4.8483,4.8449,4.8441,4.8459,4.8429,4.8438,4.8414,4.8423,4.8423,4.8384,4.8384,4.8348,4.8341,4.8322,4.8351,4.8335,4.8357,4.8351,4.8385,4.8381,4.8502,4.8515,4.8395,4.8396,4.8397,0,4.8559,4.8574,4.8541,4.8542,4.853,4.8533,4.853,4.8488,4.8487,4.8466,4.8478,4.8475,4.8469,4.8472,4.8443,4.8438,4.842,4.8463,4.8419,4.8429,4.8419,4.8417,4.8418,4.8472,4.8473,4.8474,4.8475,0,4.8663,4.8645,4.8642,4.8634,4.8632,4.8623,4.8611,4.8615,4.8569,4.857,4.857,4.8566,4.8559,4.8555,4.8545,4.853,4.8495,4.849,4.8497,4.8507,4.8518,4.8511,4.838,4.8487,4.8486,4.8485,4.8484,4.8484,4.8744,4.8755,4.8733,4.8732,4.8719,4.8709,4.8715,4.8692,4.869,4.8681,4.8657,4.866,4.8641,4.8622,4.8611,4.8613,4.8591,4.8602,4.8604,4.8607,4.8612,4.852,4.8611,4.8611,4.861,4.861,4.861,0,4.8844,4.8828,4.8827,4.8812,4.8811,4.8779,4.8765,4.8766,4.8769,4.8754,4.875,4.8749,4.8746,4.8717,4.8711,4.8718,4.8701,4.8717,4.8715,4.8712,4.8633,4.8626,4.873,4.873,4.873,4.873,4.873,4.873,4.8896,4.8912,4.8892,4.8902,4.8885,4.8888,4.8882,4.8873,4.886,4.8861,4.8858,4.884,4.8819,4.8811,4.8806,4.8798,4.8797,4.8818,4.8804,4.873,4.8718,4.8707,4.8701,4.8818,4.8819,4.8883,4.8883,4.8884]}]]